Location: Bonn
(50.7330°N, 7.1000°E)
Time: 01:57:18
(UTC+02:00)

Cosmos 1933 Rocket - Visible Passes

Search period start: 23 October 2014 00:00
Search period end: 01 November 2014 23:00
Orbit: 607 x 633 km, 82.5° (Epoch: 22 October)

Date Brightness Start Highest point End Pass type
(mag) Time Alt. Az. Time Alt. Az. Time Alt. Az.
23 Oct 5.7 05:21:07 10° SE 05:24:41 25° E 05:28:15 10° NNE visible
23 Oct 4.0 06:58:20 10° SW 07:02:24 38° WNW 07:06:29 10° N visible
24 Oct 4.7 05:38:05 10° SSE 05:42:12 43° E 05:46:20 10° NNE visible
24 Oct 4.7 07:16:48 10° WSW 07:20:18 23° WNW 07:23:48 10° NNW visible
25 Oct 3.6 05:55:28 10° S 05:59:49 77° E 06:04:10 10° NNE visible
25 Oct 5.2 07:35:51 10° W 07:38:17 15° WNW 07:40:44 10° NNW visible
26 Oct 6.3 03:37:45 11° ESE 03:40:07 16° E 03:42:48 10° NE visible
26 Oct 3.5 05:15:03 24° SSW 05:17:31 61° WNW 05:21:50 10° N visible
27 Oct 5.5 03:56:48 26° ESE 03:57:32 27° E 04:01:12 10° NNE visible
27 Oct 4.1 05:34:04 29° WSW 05:35:19 35° WNW 05:39:20 10° N visible
28 Oct 4.5 04:15:30 45° ENE 04:15:30 45° ENE 04:19:14 10° NNE visible
28 Oct 4.7 05:52:44 21° WNW 05:53:13 22° WNW 05:56:37 10° NNW visible
29 Oct 4.3 04:33:59 45° NNE 04:33:59 45° NNE 04:37:03 10° NNE visible
29 Oct 5.3 06:11:12 14° WNW 06:11:13 14° WNW 06:13:26 10° NNW visible
30 Oct 6.6 03:15:05 13° NE 03:15:05 13° NE 03:15:48 10° NE visible
30 Oct 4.7 04:52:18 30° N 04:52:18 30° N 04:54:41 10° N visible
31 Oct 6.3 03:33:17 15° NE 03:33:17 15° NE 03:34:08 10° NNE visible
31 Oct 5.2 05:10:30 20° NNW 05:10:30 20° NNW 05:12:09 10° N visible
01 Nov 6.2 03:51:24 14° NNE 03:51:24 14° NNE 03:52:07 10° NNE visible
01 Nov 5.6 05:28:36 13° NNW 05:28:36 13° NNW 05:29:23 10° NNW visible
